Zurück zum Katalog

COSMOS 1850

AktivMilitärLEO
NORAD 18095·PAYLOAD·🇷🇺 Russia

Gestartet Jun 9, 1987 von Plesetsk Cosmodrome

Loading…

Nächste Überflüge (nächste 24 Stunden)

TLE

AktuellSource: Space-Track

Epoche: Sep 14, 2026, 10:47 UTC

1 18095U 87049A   26257.44992694  .00000044  00000-0  25150-4 0  9995
2 18095  74.0363 253.4860 0015923 248.6946 111.2506 14.34149269 52708

Verfolge COSMOS 1850 in Echtzeit mit AllMySat

Download on the App Store